Year,Month,Day,Hour,Minute,Value (Times are PST for temperature in C)
2019,03,02,00,00,-1.30
2019,03,02,00,01,-1.30
2019,03,02,00,02,-1.30
2019,03,02,00,03,-1.30
2019,03,02,00,04,-1.30
2019,03,02,00,05,-1.30
2019,03,02,00,06,-1.30
2019,03,02,00,07,-1.30
2019,03,02,00,08,-1.30
2019,03,02,00,09,-1.30
2019,03,02,00,10,-1.30
2019,03,02,00,11,-1.30
2019,03,02,00,12,-1.20
2019,03,02,00,13,-1.20
2019,03,02,00,14,-1.20
2019,03,02,00,15,-1.20
2019,03,02,00,16,-1.10
2019,03,02,00,17,-1.10
2019,03,02,00,18,-1.20
2019,03,02,00,19,-1.20
2019,03,02,00,20,-1.20
2019,03,02,00,21,-1.20
2019,03,02,00,22,-1.20
2019,03,02,00,23,-1.20
2019,03,02,00,24,-1.30
2019,03,02,00,25,-1.30
2019,03,02,00,26,-1.30
2019,03,02,00,27,-1.30
2019,03,02,00,28,-1.30
2019,03,02,00,29,-1.30
2019,03,02,00,30,-1.30
2019,03,02,00,31,-1.30
2019,03,02,00,32,-1.30
2019,03,02,00,33,-1.30
2019,03,02,00,34,-1.30
2019,03,02,00,35,-1.30
2019,03,02,00,36,-1.30
2019,03,02,00,37,-1.30
2019,03,02,00,38,-1.30
2019,03,02,00,39,-1.30
2019,03,02,00,40,-1.30
2019,03,02,00,41,-1.40
2019,03,02,00,42,-1.40
2019,03,02,00,43,-1.40
2019,03,02,00,44,-1.40
2019,03,02,00,45,-1.40
2019,03,02,00,46,-1.40
2019,03,02,00,47,-1.50
2019,03,02,00,48,-1.50
2019,03,02,00,49,-1.50
2019,03,02,00,50,-1.50
2019,03,02,00,51,-1.50
2019,03,02,00,52,-1.40
2019,03,02,00,53,-1.50
2019,03,02,00,54,-1.50
2019,03,02,00,55,-1.50
2019,03,02,00,56,-1.50
2019,03,02,00,57,-1.50
2019,03,02,00,58,-1.60
2019,03,02,00,59,-1.60
2019,03,02,01,00,-1.60
2019,03,02,01,01,-1.60
2019,03,02,01,02,-1.60
2019,03,02,01,03,-1.60
2019,03,02,01,04,-1.70
2019,03,02,01,05,-1.70
2019,03,02,01,06,-1.80
2019,03,02,01,07,-1.80
2019,03,02,01,08,-1.90
2019,03,02,01,09,-1.90
2019,03,02,01,10,-1.90
2019,03,02,01,11,-2.00
2019,03,02,01,12,-2.00
2019,03,02,01,13,-2.00
2019,03,02,01,14,-2.10
2019,03,02,01,15,-2.10
2019,03,02,01,16,-2.10
2019,03,02,01,17,-2.10
2019,03,02,01,18,-2.10
2019,03,02,01,19,-2.10
2019,03,02,01,20,-2.10
2019,03,02,01,21,-2.20
2019,03,02,01,22,-2.20
2019,03,02,01,23,-2.20
2019,03,02,01,24,-2.20
2019,03,02,01,25,-2.20
2019,03,02,01,26,-2.20
2019,03,02,01,27,-2.30
2019,03,02,01,28,-2.30
2019,03,02,01,29,-2.30
2019,03,02,01,30,-2.30
2019,03,02,01,31,-2.30
2019,03,02,01,32,-2.30
2019,03,02,01,33,-2.30
2019,03,02,01,34,-2.30
2019,03,02,01,35,-2.30
2019,03,02,01,36,-2.30
2019,03,02,01,37,-2.40
2019,03,02,01,38,-2.30
2019,03,02,01,39,-2.30
2019,03,02,01,40,-2.30
2019,03,02,01,41,-2.30
2019,03,02,01,42,-2.40
2019,03,02,01,43,-2.40
2019,03,02,01,44,-2.40
2019,03,02,01,45,-2.40
2019,03,02,01,46,-2.40
2019,03,02,01,47,-2.40
2019,03,02,01,48,-2.40
2019,03,02,01,49,-2.40
2019,03,02,01,50,-2.40
2019,03,02,01,51,-2.40
2019,03,02,01,52,-2.40
2019,03,02,01,53,-2.40
2019,03,02,01,54,-2.40
2019,03,02,01,55,-2.40
2019,03,02,01,56,-2.40
2019,03,02,01,57,-2.30
2019,03,02,01,58,-2.30
2019,03,02,01,59,-2.30
2019,03,02,02,00,-2.20
2019,03,02,02,01,-2.20
2019,03,02,02,02,-2.10
2019,03,02,02,03,-2.00
2019,03,02,02,04,-1.90
2019,03,02,02,05,-1.70
2019,03,02,02,06,-1.70
2019,03,02,02,07,-1.60
2019,03,02,02,08,-1.50
2019,03,02,02,09,-1.40
2019,03,02,02,10,-1.40
2019,03,02,02,11,-1.30
2019,03,02,02,12,-1.30
2019,03,02,02,13,-1.30
2019,03,02,02,14,-1.30
2019,03,02,02,15,-1.30
2019,03,02,02,16,-1.20
2019,03,02,02,17,-1.20
2019,03,02,02,18,-1.20
2019,03,02,02,19,-1.20
2019,03,02,02,20,-1.20
2019,03,02,02,21,-1.20
2019,03,02,02,22,-1.20
2019,03,02,02,23,-1.20
2019,03,02,02,24,-1.20
2019,03,02,02,25,-1.20
2019,03,02,02,26,-1.20
2019,03,02,02,27,-1.30
2019,03,02,02,28,-1.30
2019,03,02,02,29,-1.30
2019,03,02,02,30,-1.30
2019,03,02,02,31,-1.30
2019,03,02,02,32,-1.30
2019,03,02,02,33,-1.40
2019,03,02,02,34,-1.50
2019,03,02,02,35,-1.50
2019,03,02,02,36,-1.50
2019,03,02,02,37,-1.60
2019,03,02,02,38,-1.60
2019,03,02,02,39,-1.60
2019,03,02,02,40,-1.60
2019,03,02,02,41,-1.60
2019,03,02,02,42,-1.70
2019,03,02,02,43,-1.70
2019,03,02,02,44,-1.70
2019,03,02,02,45,-1.60
2019,03,02,02,46,-1.60
2019,03,02,02,47,-1.60
2019,03,02,02,48,-1.60
2019,03,02,02,49,-1.60
2019,03,02,02,50,-1.60
2019,03,02,02,51,-1.60
2019,03,02,02,52,-1.60
2019,03,02,02,53,-1.70
2019,03,02,02,54,-1.70
2019,03,02,02,55,-1.80
2019,03,02,02,56,-1.80
2019,03,02,02,57,-1.80
2019,03,02,02,58,-1.80
2019,03,02,02,59,-1.80
2019,03,02,03,00,-1.90
2019,03,02,03,01,-1.90
2019,03,02,03,02,-1.90
2019,03,02,03,03,-1.90
2019,03,02,03,04,-1.90
2019,03,02,03,05,-2.00
2019,03,02,03,06,-2.00
2019,03,02,03,07,-2.00
2019,03,02,03,08,-2.10
2019,03,02,03,09,-2.10
2019,03,02,03,10,-2.10
2019,03,02,03,11,-2.10
2019,03,02,03,12,-2.10
2019,03,02,03,13,-2.00
2019,03,02,03,14,-2.00
2019,03,02,03,15,-2.00
2019,03,02,03,16,-2.00
2019,03,02,03,17,-1.90
2019,03,02,03,18,-1.90
2019,03,02,03,19,-1.90
2019,03,02,03,20,-1.90
2019,03,02,03,21,-1.90
2019,03,02,03,22,-1.80
2019,03,02,03,23,-1.80
2019,03,02,03,24,-1.80
2019,03,02,03,25,-1.80
2019,03,02,03,26,-1.80
2019,03,02,03,27,-1.90
2019,03,02,03,28,-1.80
2019,03,02,03,29,-1.80
2019,03,02,03,30,-1.80
2019,03,02,03,31,-1.80
2019,03,02,03,32,-1.80
2019,03,02,03,33,-1.80
2019,03,02,03,34,-1.80
2019,03,02,03,35,-1.80
2019,03,02,03,36,-1.80
2019,03,02,03,37,-1.80
2019,03,02,03,38,-1.70
2019,03,02,03,39,-1.70
2019,03,02,03,40,-1.60
2019,03,02,03,41,-1.60
2019,03,02,03,42,-1.50
2019,03,02,03,43,-1.50
2019,03,02,03,44,-1.50
2019,03,02,03,45,-1.40
2019,03,02,03,46,-1.40
2019,03,02,03,47,-1.40
2019,03,02,03,48,-1.30
2019,03,02,03,49,-1.30
2019,03,02,03,50,-1.30
2019,03,02,03,51,-1.30
2019,03,02,03,52,-1.20
2019,03,02,03,53,-1.20
2019,03,02,03,54,-1.20
2019,03,02,03,55,-1.20
2019,03,02,03,56,-1.20
2019,03,02,03,57,-1.20
2019,03,02,03,58,-1.20
2019,03,02,03,59,-1.10
2019,03,02,04,00,-1.10
2019,03,02,04,01,-1.10
2019,03,02,04,02,-1.00
2019,03,02,04,03,-1.00
2019,03,02,04,04,-0.90
2019,03,02,04,05,-0.90
2019,03,02,04,06,-0.90
2019,03,02,04,07,-0.80
2019,03,02,04,08,-0.80
2019,03,02,04,09,-0.80
2019,03,02,04,10,-0.80
2019,03,02,04,11,-0.80
2019,03,02,04,12,-0.80
2019,03,02,04,13,-0.80
2019,03,02,04,14,-0.80
2019,03,02,04,15,-0.80
2019,03,02,04,16,-0.80
2019,03,02,04,17,-0.80
2019,03,02,04,18,-0.80
2019,03,02,04,19,-0.90
2019,03,02,04,20,-0.90
2019,03,02,04,21,-0.90
2019,03,02,04,22,-0.90
2019,03,02,04,23,-0.90
2019,03,02,04,24,-0.90
2019,03,02,04,25,-0.90
2019,03,02,04,26,-0.90
2019,03,02,04,27,-0.90
2019,03,02,04,28,-0.90
2019,03,02,04,29,-0.90
2019,03,02,04,30,-0.90
2019,03,02,04,31,-0.90
2019,03,02,04,32,-0.90
2019,03,02,04,33,-0.90
2019,03,02,04,34,-0.90
2019,03,02,04,35,-0.90
2019,03,02,04,36,-1.00
2019,03,02,04,37,-1.00
2019,03,02,04,38,-1.00
2019,03,02,04,39,-1.00
2019,03,02,04,40,-1.00
2019,03,02,04,41,-1.00
2019,03,02,04,42,-1.00
2019,03,02,04,43,-1.00
2019,03,02,04,44,-1.10
2019,03,02,04,45,-1.10
2019,03,02,04,46,-1.10
2019,03,02,04,47,-1.10
2019,03,02,04,48,-1.10
2019,03,02,04,49,-1.20
2019,03,02,04,50,-1.20
2019,03,02,04,51,-1.20
2019,03,02,04,52,-1.30
2019,03,02,04,53,-1.30
2019,03,02,04,54,-1.30
2019,03,02,04,55,-1.30
2019,03,02,04,56,-1.30
2019,03,02,04,57,-1.20
2019,03,02,04,58,-1.20
2019,03,02,04,59,-1.30
2019,03,02,05,00,-1.30
2019,03,02,05,01,-1.40
2019,03,02,05,02,-1.40
2019,03,02,05,03,-1.50
2019,03,02,05,04,-1.50
2019,03,02,05,05,-1.60
2019,03,02,05,06,-1.60
2019,03,02,05,07,-1.60
2019,03,02,05,08,-1.70
2019,03,02,05,09,-1.70
2019,03,02,05,10,-1.70
2019,03,02,05,11,-1.70
2019,03,02,05,12,-1.60
2019,03,02,05,13,-1.50
2019,03,02,05,14,-1.50
2019,03,02,05,15,-1.50
2019,03,02,05,16,-1.40
2019,03,02,05,17,-1.40
2019,03,02,05,18,-1.40
2019,03,02,05,19,-1.40
2019,03,02,05,20,-1.30
2019,03,02,05,21,-1.30
2019,03,02,05,22,-1.40
2019,03,02,05,23,-1.30
2019,03,02,05,24,-1.30
2019,03,02,05,25,-1.30
2019,03,02,05,26,-1.20
2019,03,02,05,27,-1.20
2019,03,02,05,28,-1.10
2019,03,02,05,29,-1.10
2019,03,02,05,30,-1.00
2019,03,02,05,31,-1.00
2019,03,02,05,32,-0.90
2019,03,02,05,33,-0.90
2019,03,02,05,34,-0.90
2019,03,02,05,35,-0.90
2019,03,02,05,36,-0.90
2019,03,02,05,37,-0.90
2019,03,02,05,38,-0.90
2019,03,02,05,39,-0.90
2019,03,02,05,40,-0.90
2019,03,02,05,41,-0.90
2019,03,02,05,42,-0.90
2019,03,02,05,43,-0.90
2019,03,02,05,44,-0.90
2019,03,02,05,45,-0.90
2019,03,02,05,46,-0.80
2019,03,02,05,47,-0.80
2019,03,02,05,48,-0.80
2019,03,02,05,49,-0.80
2019,03,02,05,50,-0.80
2019,03,02,05,51,-0.80
2019,03,02,05,52,-0.90
2019,03,02,05,53,-0.90
2019,03,02,05,54,-0.90
2019,03,02,05,55,-0.90
2019,03,02,05,56,-0.90
2019,03,02,05,57,-0.90
2019,03,02,05,58,-0.90
2019,03,02,05,59,-0.90
2019,03,02,06,00,-0.90
2019,03,02,06,01,-1.00
2019,03,02,06,02,-1.00
2019,03,02,06,03,-1.00
2019,03,02,06,04,-1.00
2019,03,02,06,05,-1.00
2019,03,02,06,06,-1.00
2019,03,02,06,07,-1.00
2019,03,02,06,08,-1.00
2019,03,02,06,09,-1.00
2019,03,02,06,10,-1.00
2019,03,02,06,11,-1.00
2019,03,02,06,12,-1.00
2019,03,02,06,13,-0.90
2019,03,02,06,14,-0.90
2019,03,02,06,15,-0.90
2019,03,02,06,16,-0.80
2019,03,02,06,17,-0.80
2019,03,02,06,18,-0.80
2019,03,02,06,19,-0.70
2019,03,02,06,20,-0.70
2019,03,02,06,21,-0.70
2019,03,02,06,22,-0.60
2019,03,02,06,23,-0.60
2019,03,02,06,24,-0.60
2019,03,02,06,25,-0.60
2019,03,02,06,26,-0.60
2019,03,02,06,27,-0.50
2019,03,02,06,28,-0.50
2019,03,02,06,29,-0.50
2019,03,02,06,30,-0.50
2019,03,02,06,31,-0.50
2019,03,02,06,32,-0.50
2019,03,02,06,33,-0.50
2019,03,02,06,34,-0.50
2019,03,02,06,35,-0.60
2019,03,02,06,36,-0.60
2019,03,02,06,37,-0.60
2019,03,02,06,38,-0.60
2019,03,02,06,39,-0.60
2019,03,02,06,40,-0.60
2019,03,02,06,41,-0.60
2019,03,02,06,42,-0.60
2019,03,02,06,43,-0.60
2019,03,02,06,44,-0.60
2019,03,02,06,45,-0.60
2019,03,02,06,46,-0.60
2019,03,02,06,47,-0.60
2019,03,02,06,48,-0.70
2019,03,02,06,49,-0.70
2019,03,02,06,50,-0.70
2019,03,02,06,51,-0.70
2019,03,02,06,52,-0.70
2019,03,02,06,53,-0.80
2019,03,02,06,54,-0.70
2019,03,02,06,55,-0.70
2019,03,02,06,56,-0.70
2019,03,02,06,57,-0.70
2019,03,02,06,58,-0.70
2019,03,02,06,59,-0.70
2019,03,02,07,00,-0.70
2019,03,02,07,01,-0.70
2019,03,02,07,02,-0.70
2019,03,02,07,03,-0.70
2019,03,02,07,04,-0.70
2019,03,02,07,05,-0.80
2019,03,02,07,06,-0.80
2019,03,02,07,07,-0.80
2019,03,02,07,08,-0.80
2019,03,02,07,09,-0.80
2019,03,02,07,10,-0.90
2019,03,02,07,11,-0.90
2019,03,02,07,12,-0.90
2019,03,02,07,13,-0.90
2019,03,02,07,14,-1.00
2019,03,02,07,15,-1.10
2019,03,02,07,16,-1.10
2019,03,02,07,17,-1.20
2019,03,02,07,18,-1.20
2019,03,02,07,19,-1.30
2019,03,02,07,20,-1.30
2019,03,02,07,21,-1.30
2019,03,02,07,22,-1.30
2019,03,02,07,23,-1.30
2019,03,02,07,24,-1.30
2019,03,02,07,25,-1.20
2019,03,02,07,26,-1.20
2019,03,02,07,27,-1.20
2019,03,02,07,28,-1.10
2019,03,02,07,29,-1.10
2019,03,02,07,30,-1.10
2019,03,02,07,31,-1.00
2019,03,02,07,32,-1.00
2019,03,02,07,33,-0.90
2019,03,02,07,34,-0.90
2019,03,02,07,35,-0.80
2019,03,02,07,36,-0.80
2019,03,02,07,37,-0.80
2019,03,02,07,38,-0.70
2019,03,02,07,39,-0.70
2019,03,02,07,40,-0.70
2019,03,02,07,41,-0.70
2019,03,02,07,42,-0.60
2019,03,02,07,43,-0.50
2019,03,02,07,44,-0.50
2019,03,02,07,45,-0.50
2019,03,02,07,46,-0.40
2019,03,02,07,47,-0.40
2019,03,02,07,48,-0.30
2019,03,02,07,49,-0.30
2019,03,02,07,50,-0.20
2019,03,02,07,51,-0.20
2019,03,02,07,52,-0.20
2019,03,02,07,53,-0.10
2019,03,02,07,54,-0.10
2019,03,02,07,55,-0.10
2019,03,02,07,56,0.00
2019,03,02,07,57,0.00
2019,03,02,07,58,0.10
2019,03,02,07,59,0.10
2019,03,02,08,00,0.20
2019,03,02,08,01,0.20
2019,03,02,08,02,0.20
2019,03,02,08,03,0.30
2019,03,02,08,04,0.30
2019,03,02,08,05,0.30
2019,03,02,08,06,0.40
2019,03,02,08,07,0.40
2019,03,02,08,08,0.50
2019,03,02,08,09,0.50
2019,03,02,08,10,0.60
2019,03,02,08,11,0.60
2019,03,02,08,12,0.70
2019,03,02,08,13,0.70
2019,03,02,08,14,0.70
2019,03,02,08,15,0.80
2019,03,02,08,16,0.80
2019,03,02,08,17,0.90
2019,03,02,08,18,0.90
2019,03,02,08,19,1.00
2019,03,02,08,20,1.10
2019,03,02,08,21,1.20
2019,03,02,08,22,1.30
2019,03,02,08,23,1.30
2019,03,02,08,24,1.40
2019,03,02,08,25,1.50
2019,03,02,08,26,1.60
2019,03,02,08,27,1.70
2019,03,02,08,28,1.80
2019,03,02,08,29,1.80
2019,03,02,08,30,1.90
2019,03,02,08,31,1.90
2019,03,02,08,32,1.90
2019,03,02,08,33,2.00
2019,03,02,08,34,2.10
2019,03,02,08,35,2.10
2019,03,02,08,36,2.20
2019,03,02,08,37,2.20
2019,03,02,08,38,2.20
2019,03,02,08,39,2.30
2019,03,02,08,40,2.30
2019,03,02,08,41,2.30
2019,03,02,08,42,2.30
2019,03,02,08,43,2.40
2019,03,02,08,44,2.40
2019,03,02,08,45,2.40
2019,03,02,08,46,2.50
2019,03,02,08,47,2.50
2019,03,02,08,48,2.50
2019,03,02,08,49,2.50
2019,03,02,08,50,2.50
2019,03,02,08,51,2.60
2019,03,02,08,52,2.60
2019,03,02,08,53,2.60
2019,03,02,08,54,2.70
2019,03,02,08,55,2.70
2019,03,02,08,56,2.80
2019,03,02,08,57,2.80
2019,03,02,08,58,2.80
2019,03,02,08,59,2.80
2019,03,02,09,00,2.80
2019,03,02,09,01,2.80
2019,03,02,09,02,2.90
2019,03,02,09,03,2.90
2019,03,02,09,04,2.90
2019,03,02,09,05,2.90
2019,03,02,09,06,2.90
2019,03,02,09,07,2.90
2019,03,02,09,08,3.00
2019,03,02,09,09,3.00
2019,03,02,09,10,3.10
2019,03,02,09,11,3.10
2019,03,02,09,12,3.10
2019,03,02,09,13,3.20
2019,03,02,09,14,3.20
2019,03,02,09,15,3.20
2019,03,02,09,16,3.30
2019,03,02,09,17,3.30
2019,03,02,09,18,3.40
2019,03,02,09,19,3.40
2019,03,02,09,20,3.40
2019,03,02,09,21,3.50
2019,03,02,09,22,3.50
2019,03,02,09,23,3.60
2019,03,02,09,24,3.60
2019,03,02,09,25,3.70
2019,03,02,09,26,3.70
2019,03,02,09,27,3.70
2019,03,02,09,28,3.70
2019,03,02,09,29,3.80
2019,03,02,09,30,3.80
2019,03,02,09,31,3.90
2019,03,02,09,32,3.90
2019,03,02,09,33,3.90
2019,03,02,09,34,4.00
2019,03,02,09,35,4.00
2019,03,02,09,36,4.00
2019,03,02,09,37,4.10
2019,03,02,09,38,4.10
2019,03,02,09,39,4.10
2019,03,02,09,40,4.10
2019,03,02,09,41,4.20
2019,03,02,09,42,4.20
2019,03,02,09,43,4.20
2019,03,02,09,44,4.20
2019,03,02,09,45,4.20
2019,03,02,09,46,4.30
2019,03,02,09,47,4.30
2019,03,02,09,48,4.30
2019,03,02,09,49,4.30
2019,03,02,09,50,4.30
2019,03,02,09,51,4.40
2019,03,02,09,52,4.40
2019,03,02,09,53,4.40
2019,03,02,09,54,4.40
2019,03,02,09,55,4.40
2019,03,02,09,56,4.50
2019,03,02,09,57,4.50
2019,03,02,09,58,4.50
2019,03,02,09,59,4.50
2019,03,02,10,00,4.60
2019,03,02,10,01,4.60
2019,03,02,10,02,4.60
2019,03,02,10,03,4.70
2019,03,02,10,04,4.70
2019,03,02,10,05,4.80
2019,03,02,10,06,4.80
2019,03,02,10,07,4.80
2019,03,02,10,08,4.90
2019,03,02,10,09,4.90
2019,03,02,10,10,4.90
2019,03,02,10,11,4.90
2019,03,02,10,12,5.00
2019,03,02,10,13,5.10
2019,03,02,10,14,5.10
2019,03,02,10,15,5.10
2019,03,02,10,16,5.20
2019,03,02,10,17,5.20
2019,03,02,10,18,5.20
2019,03,02,10,19,5.20
2019,03,02,10,20,5.20
2019,03,02,10,21,5.20
2019,03,02,10,22,5.30
2019,03,02,10,23,5.30
2019,03,02,10,24,5.30
2019,03,02,10,25,5.30
2019,03,02,10,26,5.30
2019,03,02,10,27,5.30
2019,03,02,10,28,5.30
2019,03,02,10,29,5.40
2019,03,02,10,30,5.40
2019,03,02,10,31,5.40
2019,03,02,10,32,5.50
2019,03,02,10,33,5.50
2019,03,02,10,34,5.50
2019,03,02,10,35,5.60
2019,03,02,10,36,5.50
2019,03,02,10,37,5.50
2019,03,02,10,38,5.50
2019,03,02,10,39,5.50
2019,03,02,10,40,5.50
2019,03,02,10,41,5.50
2019,03,02,10,42,5.40
2019,03,02,10,43,5.40
2019,03,02,10,44,5.40
2019,03,02,10,45,5.40
2019,03,02,10,46,5.40
2019,03,02,10,47,5.50
2019,03,02,10,48,5.50
2019,03,02,10,49,5.50
2019,03,02,10,50,5.50
2019,03,02,10,51,5.50
2019,03,02,10,52,5.50
2019,03,02,10,53,5.50
2019,03,02,10,54,5.50
2019,03,02,10,55,5.50
2019,03,02,10,56,5.60
2019,03,02,10,57,5.60
2019,03,02,10,58,5.60
2019,03,02,10,59,5.60
2019,03,02,11,00,5.70
2019,03,02,11,01,5.70
2019,03,02,11,02,5.70
2019,03,02,11,03,5.80
2019,03,02,11,04,5.80
2019,03,02,11,05,5.90
2019,03,02,11,06,5.90
2019,03,02,11,07,5.90
2019,03,02,11,08,5.90
2019,03,02,11,09,5.90
2019,03,02,11,10,5.90
2019,03,02,11,11,5.90
2019,03,02,11,12,6.00
2019,03,02,11,13,6.00
2019,03,02,11,14,6.00
2019,03,02,11,15,6.10
2019,03,02,11,16,6.10
2019,03,02,11,17,6.10
2019,03,02,11,18,6.20
2019,03,02,11,19,6.20
2019,03,02,11,20,6.20
2019,03,02,11,21,6.20
2019,03,02,11,22,6.20
2019,03,02,11,23,6.20
2019,03,02,11,24,6.30
2019,03,02,11,25,6.30
2019,03,02,11,26,6.30
2019,03,02,11,27,6.40
2019,03,02,11,28,6.50
2019,03,02,11,29,6.60
2019,03,02,11,30,6.70
2019,03,02,11,31,6.80
2019,03,02,11,32,6.90
2019,03,02,11,33,7.00
2019,03,02,11,34,7.00
2019,03,02,11,35,7.00
2019,03,02,11,36,7.00
2019,03,02,11,37,7.00
2019,03,02,11,38,6.90
2019,03,02,11,39,6.90
2019,03,02,11,40,6.90
2019,03,02,11,41,7.00
2019,03,02,11,42,7.10
2019,03,02,11,43,7.20
2019,03,02,11,44,7.20
2019,03,02,11,45,7.20
2019,03,02,11,46,7.10
2019,03,02,11,47,7.10
2019,03,02,11,48,7.00
2019,03,02,11,49,6.90
2019,03,02,11,50,6.90
2019,03,02,11,51,6.90
2019,03,02,11,52,6.90
2019,03,02,11,53,6.90
2019,03,02,11,54,7.00
2019,03,02,11,55,7.00
2019,03,02,11,56,7.10
2019,03,02,11,57,7.20
2019,03,02,11,58,7.30
2019,03,02,11,59,7.30
2019,03,02,12,00,7.30
2019,03,02,12,01,7.30
2019,03,02,12,02,7.30
2019,03,02,12,03,7.30
2019,03,02,12,04,7.20
2019,03,02,12,05,7.20
2019,03,02,12,06,7.20
2019,03,02,12,07,7.10
2019,03,02,12,08,7.10
2019,03,02,12,09,7.10
2019,03,02,12,10,7.10
2019,03,02,12,11,7.10
2019,03,02,12,12,7.10
2019,03,02,12,13,7.10
2019,03,02,12,14,7.10
2019,03,02,12,15,7.10
2019,03,02,12,16,7.10
2019,03,02,12,17,7.10
2019,03,02,12,18,7.10
2019,03,02,12,19,7.10
2019,03,02,12,20,7.10
2019,03,02,12,21,7.20
2019,03,02,12,22,7.20
2019,03,02,12,23,7.20
2019,03,02,12,24,7.20
2019,03,02,12,25,7.20
2019,03,02,12,26,7.30
2019,03,02,12,27,7.30
2019,03,02,12,28,7.30
2019,03,02,12,29,7.30
2019,03,02,12,30,7.30
2019,03,02,12,31,7.30
2019,03,02,12,32,7.30
2019,03,02,12,33,7.30
2019,03,02,12,34,7.30
2019,03,02,12,35,7.30
2019,03,02,12,36,7.30
2019,03,02,12,37,7.30
2019,03,02,12,38,7.30
2019,03,02,12,39,7.40
2019,03,02,12,40,7.40
2019,03,02,12,41,7.40
2019,03,02,12,42,7.40
2019,03,02,12,43,7.40
2019,03,02,12,44,7.50
2019,03,02,12,45,7.50
2019,03,02,12,46,7.40
2019,03,02,12,47,7.50
2019,03,02,12,48,7.50
2019,03,02,12,49,7.60
2019,03,02,12,50,7.70
2019,03,02,12,51,7.70
2019,03,02,12,52,7.80
2019,03,02,12,53,7.80
2019,03,02,12,54,8.00
2019,03,02,12,55,8.10
2019,03,02,12,56,8.10
2019,03,02,12,57,8.20
2019,03,02,12,58,8.10
2019,03,02,12,59,8.10
2019,03,02,13,00,8.00
2019,03,02,13,01,7.90
2019,03,02,13,02,7.90
2019,03,02,13,03,7.90
2019,03,02,13,04,7.80
2019,03,02,13,05,7.80
2019,03,02,13,06,7.80
2019,03,02,13,07,7.80
2019,03,02,13,08,7.70
2019,03,02,13,09,7.70
2019,03,02,13,10,7.70
2019,03,02,13,11,7.70
2019,03,02,13,12,7.70
2019,03,02,13,13,7.70
2019,03,02,13,14,7.70
2019,03,02,13,15,7.70
2019,03,02,13,16,7.70
2019,03,02,13,17,7.70
2019,03,02,13,18,7.60
2019,03,02,13,19,7.60
2019,03,02,13,20,7.60
2019,03,02,13,21,7.60
2019,03,02,13,22,7.60
2019,03,02,13,23,7.70
2019,03,02,13,24,7.70
2019,03,02,13,25,7.80
2019,03,02,13,26,7.80
2019,03,02,13,27,7.80
2019,03,02,13,28,7.80
2019,03,02,13,29,7.80
2019,03,02,13,30,7.80
2019,03,02,13,31,7.80
2019,03,02,13,32,7.90
2019,03,02,13,33,7.90
2019,03,02,13,34,7.90
2019,03,02,13,35,8.00
2019,03,02,13,36,8.10
2019,03,02,13,37,8.20
2019,03,02,13,38,8.30
2019,03,02,13,39,8.50
2019,03,02,13,40,8.60
2019,03,02,13,41,8.70
2019,03,02,13,42,8.90
2019,03,02,13,43,9.00
2019,03,02,13,44,9.00
2019,03,02,13,45,9.10
2019,03,02,13,46,9.20
2019,03,02,13,47,9.20
2019,03,02,13,48,9.30
2019,03,02,13,49,9.30
2019,03,02,13,50,9.30
2019,03,02,13,51,9.40
2019,03,02,13,52,9.50
2019,03,02,13,53,9.60
2019,03,02,13,54,9.70
2019,03,02,13,55,9.70
2019,03,02,13,56,9.70
2019,03,02,13,57,9.60
2019,03,02,13,58,9.50
2019,03,02,13,59,9.40
2019,03,02,14,00,9.20
2019,03,02,14,01,9.10
2019,03,02,14,02,9.00
2019,03,02,14,03,8.90
2019,03,02,14,04,8.90
2019,03,02,14,05,8.90
2019,03,02,14,06,8.90
2019,03,02,14,07,9.00
2019,03,02,14,08,9.00
2019,03,02,14,09,9.10
2019,03,02,14,10,9.10
2019,03,02,14,11,9.00
2019,03,02,14,12,8.90
2019,03,02,14,13,8.80
2019,03,02,14,14,8.70
2019,03,02,14,15,8.60
2019,03,02,14,16,8.60
2019,03,02,14,17,8.60
2019,03,02,14,18,8.60
2019,03,02,14,19,8.60
2019,03,02,14,20,8.70
2019,03,02,14,21,8.70
2019,03,02,14,22,8.80
2019,03,02,14,23,8.90
2019,03,02,14,24,8.90
2019,03,02,14,25,9.00
2019,03,02,14,26,9.10
2019,03,02,14,27,9.10
2019,03,02,14,28,9.10
2019,03,02,14,29,9.10
2019,03,02,14,30,9.20
2019,03,02,14,31,9.20
2019,03,02,14,32,9.30
2019,03,02,14,33,9.30
2019,03,02,14,34,9.40
2019,03,02,14,35,9.40
2019,03,02,14,36,9.50
2019,03,02,14,37,9.60
2019,03,02,14,38,9.60
2019,03,02,14,39,9.50
2019,03,02,14,40,9.50
2019,03,02,14,41,9.50
2019,03,02,14,42,9.50
2019,03,02,14,43,9.60
2019,03,02,14,44,9.50
2019,03,02,14,45,9.50
2019,03,02,14,46,9.40
2019,03,02,14,47,9.20
2019,03,02,14,48,9.20
2019,03,02,14,49,9.10
2019,03,02,14,50,9.10
2019,03,02,14,51,9.20
2019,03,02,14,52,9.20
2019,03,02,14,53,9.20
2019,03,02,14,54,9.10
2019,03,02,14,55,9.00
2019,03,02,14,56,9.00
2019,03,02,14,57,8.90
2019,03,02,14,58,9.00
2019,03,02,14,59,9.10
2019,03,02,15,00,9.20
2019,03,02,15,01,9.30
2019,03,02,15,02,9.30
2019,03,02,15,03,9.40
2019,03,02,15,04,9.50
2019,03,02,15,05,9.60
2019,03,02,15,06,9.60
2019,03,02,15,07,9.60
2019,03,02,15,08,9.70
2019,03,02,15,09,9.70
2019,03,02,15,10,9.60
2019,03,02,15,11,9.60
2019,03,02,15,12,9.50
2019,03,02,15,13,9.40
2019,03,02,15,14,9.40
2019,03,02,15,15,9.40
2019,03,02,15,16,9.40
2019,03,02,15,17,9.40
2019,03,02,15,18,9.40
2019,03,02,15,19,9.30
2019,03,02,15,20,9.30
2019,03,02,15,21,9.30
2019,03,02,15,22,9.30
2019,03,02,15,23,9.30
2019,03,02,15,24,9.20
2019,03,02,15,25,9.20
2019,03,02,15,26,9.20
2019,03,02,15,27,9.20
2019,03,02,15,28,9.20
2019,03,02,15,29,9.30
2019,03,02,15,30,9.40
2019,03,02,15,31,9.50
2019,03,02,15,32,9.60
2019,03,02,15,33,9.60
2019,03,02,15,34,9.50
2019,03,02,15,35,9.50
2019,03,02,15,36,9.40
2019,03,02,15,37,9.30
2019,03,02,15,38,9.30
2019,03,02,15,39,9.40
2019,03,02,15,40,9.40
2019,03,02,15,41,9.40
2019,03,02,15,42,9.40
2019,03,02,15,43,9.40
2019,03,02,15,44,9.40
2019,03,02,15,45,9.40
2019,03,02,15,46,9.40
2019,03,02,15,47,9.40
2019,03,02,15,48,9.40
2019,03,02,15,49,9.50
2019,03,02,15,50,9.40
2019,03,02,15,51,9.40
2019,03,02,15,52,9.30
2019,03,02,15,53,9.30
2019,03,02,15,54,9.30
2019,03,02,15,55,9.30
2019,03,02,15,56,9.20
2019,03,02,15,57,9.20
2019,03,02,15,58,9.20
2019,03,02,15,59,9.20
2019,03,02,16,00,9.10
2019,03,02,16,01,9.00
2019,03,02,16,02,9.00
2019,03,02,16,03,8.90
2019,03,02,16,04,8.80
2019,03,02,16,05,8.80
2019,03,02,16,06,8.80
2019,03,02,16,07,8.80
2019,03,02,16,08,8.70
2019,03,02,16,09,8.70
2019,03,02,16,10,8.70
2019,03,02,16,11,8.60
2019,03,02,16,12,8.60
2019,03,02,16,13,8.50
2019,03,02,16,14,8.40
2019,03,02,16,15,8.40
2019,03,02,16,16,8.40
2019,03,02,16,17,8.30
2019,03,02,16,18,8.30
2019,03,02,16,19,8.20
2019,03,02,16,20,8.20
2019,03,02,16,21,8.10
2019,03,02,16,22,8.00
2019,03,02,16,23,8.00
2019,03,02,16,24,7.90
2019,03,02,16,25,7.90
2019,03,02,16,26,7.80
2019,03,02,16,27,7.80
2019,03,02,16,28,7.80
2019,03,02,16,29,7.80
2019,03,02,16,30,7.80
2019,03,02,16,31,7.80
2019,03,02,16,32,7.80
2019,03,02,16,33,7.80
2019,03,02,16,34,7.80
2019,03,02,16,35,7.80
2019,03,02,16,36,7.80
2019,03,02,16,37,7.80
2019,03,02,16,38,7.80
2019,03,02,16,39,7.80
2019,03,02,16,40,7.90
2019,03,02,16,41,7.90
2019,03,02,16,42,7.90
2019,03,02,16,43,7.90
2019,03,02,16,44,7.90
2019,03,02,16,45,7.90
2019,03,02,16,46,8.00
2019,03,02,16,47,7.90
2019,03,02,16,48,7.90
2019,03,02,16,49,7.80
2019,03,02,16,50,7.80
2019,03,02,16,51,7.80
2019,03,02,16,52,7.70
2019,03,02,16,53,7.70
2019,03,02,16,54,7.60
2019,03,02,16,55,7.60
2019,03,02,16,56,7.60
2019,03,02,16,57,7.50
2019,03,02,16,58,7.50
2019,03,02,16,59,7.50
2019,03,02,17,00,7.40
2019,03,02,17,01,7.40
2019,03,02,17,02,7.40
2019,03,02,17,03,7.40
2019,03,02,17,04,7.30
2019,03,02,17,05,7.30
2019,03,02,17,06,7.30
2019,03,02,17,07,7.30
2019,03,02,17,08,7.20
2019,03,02,17,09,7.20
2019,03,02,17,10,7.20
2019,03,02,17,11,7.20
2019,03,02,17,12,7.20
2019,03,02,17,13,7.20
2019,03,02,17,14,7.20
2019,03,02,17,15,7.30
2019,03,02,17,16,7.30
2019,03,02,17,17,7.30
2019,03,02,17,18,7.30
2019,03,02,17,19,7.30
2019,03,02,17,20,7.30
2019,03,02,17,21,7.30
2019,03,02,17,22,7.30
2019,03,02,17,23,7.30
2019,03,02,17,24,7.20
2019,03,02,17,25,7.20
2019,03,02,17,26,7.20
2019,03,02,17,27,7.20
2019,03,02,17,28,7.10
2019,03,02,17,29,7.10
2019,03,02,17,30,7.10
2019,03,02,17,31,7.10
2019,03,02,17,32,7.00
2019,03,02,17,33,7.00
2019,03,02,17,34,7.00
2019,03,02,17,35,7.00
2019,03,02,17,36,6.90
2019,03,02,17,37,6.90
2019,03,02,17,38,6.90
2019,03,02,17,39,6.90
2019,03,02,17,40,6.80
2019,03,02,17,41,6.80
2019,03,02,17,42,6.80
2019,03,02,17,43,6.80
2019,03,02,17,44,6.80
2019,03,02,17,45,6.80